User: anonymous   Login
Location: Unspecified
(0.0000°N, 0.0000°E)
Time: 18:08:06
(UTC+00:00)
Language:

OPTUS D3 - Orbit

View from above orbital plane
View from above orbital plane
View from above satellite
View from above satellite

Ground track
Ground track

The orbit data is extracted from the following two-line orbital elements,

1 35756U 09044B   16042.80871807 -.00000163  00000-0  00000+0 0  9995
2 35756   0.0474 340.1556 0004069 349.0031 259.2685  1.00271896 23743
Epoch (UTC): 11 February 2016 19:24:33
Eccentricity: 0.0004069
inclination: 0.0474°
perigee height: 35769 km
apogee height: 35803 km
right ascension of ascending node: 340.1556°
argument of perigee: 349.0031°
revolutions per day: 1.00271896
mean anomaly at epoch: 259.2685°
orbit number at epoch: 2374

The dashed part of the orbit path shows where the satellite is in the earth's shadow,  

DLR